M5LOW Weather Reports


time (UTC)temp
C
wind
direction
speed
KPH
gust
KPH
rain 1hr
cm
rain 24hr
cm
rain mn
cm
humidity
%
barometer
mb
20260503220504 7 172 0.0 1.6 0.00 2.41 2.31 92 1013.5
20260503220004 7 215 0.0 1.6 0.00 2.41 2.31 92 1013.5
20260503215504 7 355 0.0 1.6 0.00 2.41 2.31 92 1013.5
20260503213504 7 10 0.0 3.2 0.00 2.41 2.31 92 1013.5
20260503213004 7 69 1.6 3.2 0.00 2.41 2.31 92 1013.5
20260503212504 7 301 0.0 1.6 0.00 2.41 2.31 92 1013.5
20260503212004 7 1 0.0 1.6 0.00 2.41 2.31 92 1013.5
20260503211503 7 141 0.0 1.6 0.00 2.41 2.31 92 1013.5
20260503210005 7 44 1.6 3.2 0.00 2.41 2.31 93 1013.3
20260503205504 7 91 0.0 1.6 0.00 2.41 2.31 93 1013.2
20260503205004 7 86 0.0 3.2 0.00 2.46 2.31 93 1013.5
20260503204504 7 23 0.0 3.2 0.00 2.46 2.31 93 1013.5
20260503204003 7 79 0.0 1.6 0.00 2.46 2.31 93 1013.5
20260503203504 7 181 0.0 3.2 0.00 2.46 2.31 94 1013.2
20260503203004 7 99 0.0 3.2 0.00 2.46 2.31 94 1013.2
20260503202504 7 116 1.6 3.2 0.00 2.46 2.31 94 1013.2
20260503202003 7 355 0.0 3.2 0.00 2.46 2.31 94 1013.2
20260503201504 7 289 0.0 3.2 0.00 2.46 2.31 94 1013.0
20260503201004 7 2 0.0 4.8 0.00 2.46 2.31 94 1013.2
20260503200504 7 105 0.0 4.8 0.00 2.46 2.31 94 1012.9
20260503200004 7 31 0.0 1.6 0.00 2.46 2.31 94 1012.9
20260503195504 7 118 1.6 1.6 0.00 2.46 2.31 94 1012.9
20260503195004 7 108 0.0 1.6 0.00 2.46 2.31 94 1012.9
20260503194504 7 95 0.0 1.6 0.00 2.46 2.31 94 1012.9
20260503194004 7 270 1.6 3.2 0.00 2.46 2.31 94 1012.9
20260503193503 7 134 1.6 3.2 0.00 2.46 2.31 95 1012.9
20260503193004 7 92 1.6 1.6 0.00 2.46 2.31 95 1012.9
20260503192504 7 121 1.6 3.2 0.00 2.46 2.31 95 1012.6
20260503192004 7 79 1.6 8.0 0.00 2.46 2.31 95 1012.6
20260503191503 7 118 0.0 3.2 0.00 2.46 2.31 95 1012.7
20260503191004 7 95 1.6 3.2 0.00 2.46 2.31 95 1012.5
20260503190504 7 23 1.6 3.2 0.00 2.46 2.31 95 1012.5
20260503190004 7 227 1.6 4.8 0.00 2.46 2.31 95 1012.2
20260503184504 7 118 0.0 3.2 0.00 2.46 2.31 95 1012.2
20260503184004 7 155 0.0 3.2 0.00 2.46 2.31 95 1012.3
20260503183504 7 115 1.6 4.8 0.00 2.46 2.31 95 1012.5
20260503183005 7 169 1.6 4.8 0.00 2.46 2.31 95 1012.2
20260503182504 7 111 1.6 4.8 0.00 2.46 2.31 95 1012.2
20260503181505 7 89 3.2 4.8 0.00 2.46 2.31 95 1012.2
20260503180004 7 61 1.6 1.6 0.00 2.46 2.31 95 1011.9
20260503175504 7 16 1.6 4.8 0.00 2.46 2.31 95 1012.2
20260503175004 7 93 1.6 3.2 0.00 2.46 2.31 95 1011.9
20260503174004 7 131 1.6 3.2 0.00 2.46 2.31 95 1011.9
20260503173505 7 171 1.6 4.8 0.00 2.46 2.31 95 1011.9
20260503173004 8 141 1.6 4.8 0.00 2.46 2.31 95 1011.9
20260503172504 8 76 1.6 4.8 0.00 2.46 2.31 95 1011.9
20260503172004 8 143 0.0 3.2 0.00 2.46 2.31 95 1011.9
20260503171503 8 194 1.6 3.2 0.00 2.46 2.31 95 1011.9
20260503171004 7 100 1.6 3.2 0.00 2.46 2.31 95 1011.9
20260503170504 8 198 3.2 3.2 0.00 2.46 2.31 95 1011.9
20260503151004 8 139 1.6 4.8 0.00 2.46 2.31 96 1011.9
20260503131004 9 189 1.6 3.2 0.00 2.44 2.29 96 1011.8
20260503130504 9 109 3.2 3.2 0.00 2.44 2.29 96 1011.5
20260503081504 9 154 1.6 3.2 0.28 2.31 2.13 97 1011.2
20260503081004 9 128 3.2 3.2 2.11 2.29 2.11 97 1011.2
20260503072504 8 183 1.6 4.8 1.91 2.08 1.91 97 1011.2
20260503072004 9 184 3.2 4.8 1.88 2.06 1.88 97 1011.2
20260503071504 9 223 3.2 20.9 1.85 2.03 1.85 97 1011.2